| time (UTC) | temp C | wind direction | speed KPH | gust KPH | rain 1hr cm | rain 24hr cm | rain mn cm | humidity % | barometer mb |
| 20260505124559 | 10 | 212 | 1.6 | 11.3 | 0.00 | 0.00 | 0.00 | 69 | 1014.6 |
| 20260505123055 | 10 | 217 | 4.8 | 14.5 | 0.00 | 0.00 | 0.00 | 70 | 1014.4 |
| 20260505121611 | 9 | 203 | 4.8 | 12.9 | 0.00 | 0.00 | 0.00 | 72 | 1014.4 |
| 20260505120048 | 9 | 207 | 3.2 | 14.5 | 0.00 | 0.00 | 0.00 | 72 | 1014.3 |
| 20260505114543 | 9 | 199 | 3.2 | 8.0 | 0.00 | 0.00 | 0.00 | 72 | 1014.2 |
| 20260505113042 | 8 | 202 | 1.6 | 11.3 | 0.00 | 0.00 | 0.00 | 73 | 1013.9 |
| 20260505111538 | 8 | 217 | 6.4 | 12.9 | 0.00 | 0.00 | 0.00 | 72 | 1014.0 |
| 20260505101525 | 8 | 219 | 3.2 | 12.9 | 0.00 | 0.00 | 0.00 | 72 | 1013.9 |
| 20260505100026 | 8 | 252 | 4.8 | 12.9 | 0.00 | 0.00 | 0.00 | 71 | 1014.0 |
| 20260505094519 | 8 | 205 | 6.4 | 14.5 | 0.00 | 0.00 | 0.00 | 71 | 1014.0 |
| 20260505093027 | 8 | 236 | 4.8 | 11.3 | 0.00 | 0.00 | 0.00 | 72 | 1014.0 |
| 20260505091516 | 8 | 267 | 4.8 | 9.7 | 0.00 | 0.00 | 0.00 | 72 | 1014.1 |
| 20260505090014 | 8 | 223 | 0.0 | 16.1 | 0.00 | 0.00 | 0.00 | 73 | 1013.9 |
| 20260505084509 | 8 | 258 | 3.2 | 14.5 | 0.00 | 0.00 | 0.00 | 74 | 1014.1 |
| 20260505083008 | 8 | 213 | 3.2 | 14.5 | 0.00 | 0.00 | 0.00 | 76 | 1013.9 |
| 20260505081506 | 7 | 205 | 3.2 | 9.7 | 0.00 | 0.00 | 0.00 | 77 | 1013.9 |
| 20260505080003 | 7 | 212 | 1.6 | 6.4 | 0.00 | 0.00 | 0.00 | 78 | 1013.7 |
| 20260505074559 | 7 | 195 | 4.8 | 9.7 | 0.00 | 0.00 | 0.00 | 79 | 1013.7 |
| 20260505073059 | 7 | 205 | 0.0 | 11.3 | 0.00 | 0.00 | 0.00 | 78 | 1013.8 |
| 20260505071555 | 7 | 206 | 4.8 | 11.3 | 0.00 | 0.00 | 0.00 | 79 | 1013.5 |
| 20260505070050 | 7 | 206 | 4.8 | 11.3 | 0.00 | 0.00 | 0.00 | 80 | 1013.6 |
| 20260505064548 | 7 | 206 | 1.6 | 11.3 | 0.00 | 0.00 | 0.00 | 80 | 1013.7 |
| 20260505063046 | 7 | 212 | 3.2 | 12.9 | 0.00 | 0.00 | 0.00 | 79 | 1013.5 |
| 20260505061546 | 7 | 217 | 0.0 | 8.0 | 0.00 | 0.00 | 0.00 | 79 | 1013.8 |
| 20260505060040 | 8 | 199 | 4.8 | 14.5 | 0.00 | 0.00 | 0.00 | 79 | 1013.7 |
| 20260505054640 | 8 | 203 | 3.2 | 12.9 | 0.00 | 0.00 | 0.00 | 79 | 1013.6 |
| 20260505053042 | 8 | 215 | 4.8 | 12.9 | 0.00 | 0.00 | 0.00 | 79 | 1013.7 |
| 20260505051534 | 8 | 196 | 8.0 | 22.5 | 0.00 | 0.00 | 0.00 | 79 | 1013.6 |
| 20260505041516 | 8 | 213 | 6.4 | 17.7 | 0.00 | 0.00 | 0.00 | 78 | 1013.8 |
| 20260505040013 | 8 | 200 | 6.4 | 17.7 | 0.00 | 0.00 | 0.00 | 78 | 1013.7 |
| 20260505034508 | 8 | 188 | 8.0 | 19.3 | 0.00 | 0.00 | 0.00 | 78 | 1014.0 |
| 20260505033015 | 8 | 175 | 8.0 | 16.1 | 0.00 | 0.00 | 0.00 | 77 | 1014.3 |
| 20260505031505 | 8 | 213 | 8.0 | 14.5 | 0.00 | 0.00 | 0.00 | 76 | 1014.4 |
| 20260505030003 | 9 | 191 | 6.4 | 16.1 | 0.00 | 0.00 | 0.00 | 74 | 1014.6 |
| 20260505024609 | 9 | 176 | 6.4 | 17.7 | 0.00 | 0.00 | 0.00 | 73 | 1014.7 |
| 20260505023107 | 9 | 203 | 3.2 | 14.5 | 0.00 | 0.00 | 0.00 | 72 | 1014.7 |
| 20260505021557 | 9 | 203 | 4.8 | 20.9 | 0.00 | 0.00 | 0.00 | 70 | 1014.7 |
| 20260505020056 | 9 | 191 | 6.4 | 20.9 | 0.00 | 0.00 | 0.00 | 69 | 1014.6 |
| 20260505014552 | 10 | 192 | 6.4 | 12.9 | 0.00 | 0.00 | 0.00 | 68 | 1014.7 |
| 20260505013051 | 10 | 188 | 4.8 | 19.3 | 0.00 | 0.00 | 0.00 | 67 | 1014.7 |
| 20260505011555 | 10 | 185 | 4.8 | 14.5 | 0.00 | 0.00 | 0.00 | 66 | 1014.6 |
| 20260505010047 | 10 | 198 | 4.8 | 16.1 | 0.00 | 0.00 | 0.00 | 64 | 1014.7 |
| 20260505004549 | 10 | 190 | 4.8 | 16.1 | 0.00 | 0.00 | 0.00 | 64 | 1014.5 |
| 20260505003043 | 11 | 221 | 3.2 | 16.1 | 0.00 | 0.00 | 0.00 | 64 | 1014.3 |
| 20260505001542 | 11 | 194 | 4.8 | 20.9 | 0.00 | 0.00 | 0.00 | 63 | 1014.3 |
| 20260505000044 | 12 | 172 | 8.0 | 19.3 | 0.00 | 0.00 | 0.00 | 61 | 1014.3 |
| 20260504234600 | 13 | 222 | 8.0 | 16.1 | 0.00 | 0.00 | 0.00 | 58 | 1014.2 |
| 20260504233035 | 13 | 236 | 4.8 | 19.3 | 0.00 | 0.00 | 0.00 | 57 | 1014.2 |
| 20260504231541 | 14 | 198 | 9.7 | 19.3 | 0.00 | 0.00 | 0.00 | 56 | 1014.1 |
| 20260504230029 | 14 | 203 | 8.0 | 22.5 | 0.00 | 0.00 | 0.00 | 57 | 1014.1 |
| 20260504224528 | 13 | 206 | 6.4 | 17.7 | 0.00 | 0.00 | 0.00 | 59 | 1014.0 |
| 20260504223025 | 14 | 164 | 6.4 | 16.1 | 0.00 | 0.00 | 0.00 | 59 | 1014.2 |
| 20260504221524 | 15 | 210 | 9.7 | 17.7 | 0.00 | 0.00 | 0.00 | 56 | 1014.0 |
| 20260504220020 | 15 | 203 | 1.6 | 16.1 | 0.00 | 0.00 | 0.00 | 54 | 1014.1 |
| 20260504214518 | 15 | 202 | 8.0 | 19.3 | 0.00 | 0.00 | 0.00 | 52 | 1014.3 |
| 20260504213013 | 15 | 207 | 3.2 | 11.3 | 0.00 | 0.00 | 0.00 | 51 | 1014.5 |
| 20260504211508 | 16 | 213 | 3.2 | 14.5 | 0.00 | 0.00 | 0.00 | 51 | 1014.7 |
| 20260504210010 | 16 | 226 | 6.4 | 14.5 | 0.00 | 0.00 | 0.00 | 52 | 1014.8 |
| 20260504204505 | 16 | 208 | 6.4 | 12.9 | 0.00 | 0.00 | 0.00 | 51 | 1015.0 |
| 20260504203100 | 16 | 176 | 8.0 | 17.7 | 0.00 | 0.00 | 0.00 | 49 | 1015.1 |
| 20260504201559 | 17 | 188 | 8.0 | 16.1 | 0.00 | 0.00 | 0.00 | 50 | 1015.2 |
| 20260504200057 | 16 | 205 | 4.8 | 17.7 | 0.00 | 0.00 | 0.00 | 53 | 1015.5 |
| 20260504194553 | 17 | 265 | 4.8 | 16.1 | 0.00 | 0.00 | 0.00 | 53 | 1015.7 |
| 20260504193047 | 16 | 184 | 6.4 | 16.1 | 0.00 | 0.00 | 0.00 | 57 | 1015.8 |
| 20260504191545 | 16 | 195 | 6.4 | 14.5 | 0.00 | 0.00 | 0.00 | 57 | 1016.2 |
| 20260504190047 | 15 | 184 | 1.6 | 14.5 | 0.00 | 0.00 | 0.00 | 61 | 1016.2 |
| 20260504184534 | 15 | 37 | 6.4 | 11.3 | 0.00 | 0.00 | 0.00 | 62 | 1016.4 |
| 20260504183032 | 14 | 212 | 8.0 | 17.7 | 0.00 | 0.00 | 0.00 | 62 | 1016.7 |
| 20260504181527 | 13 | 221 | 6.4 | 19.3 | 0.00 | 0.00 | 0.00 | 64 | 1016.7 |
| 20260504180023 | 13 | 218 | 4.8 | 17.7 | 0.00 | 0.00 | 0.00 | 65 | 1016.9 |
| 20260504174520 | 12 | 199 | 12.9 | 24.1 | 0.00 | 0.00 | 0.00 | 65 | 1017.0 |
| 20260504173016 | 12 | 220 | 4.8 | 19.3 | 0.00 | 0.00 | 0.00 | 66 | 1017.2 |
| 20260504171532 | 12 | 46 | 16.1 | 30.6 | 0.00 | 0.00 | 0.00 | 66 | 1017.1 |